Weather in Stavropolskaya

Russia / Krasnodar Krai     44°42′57″N   38°49′37″E
temp.,
°C
wind,
m/s
gust,
m/s
humid.,
%
clouds,
%
prec.,
mm/h
press.,
hPa
HPBL,
m
7 may, fri
fri700:00+10sw22712 0.0 101311
03:00+9sw227818 0.0 101413
06:00+8ssw23645 0.0 101641
09:00+17ssw46535 0.0 1017687
12:00+20ssw564897 0.0 10171347
15:00+20ssw564792 0.0 10171081
18:00+17ssw356253 0.0 1017302
21:00+11s337911 0.0 101845
8 may, sat
sat800:00+10s33765 0.0 101740
03:00+9s3377100 0.0 101641
06:00+10s2383100 0.0 101568
09:00+18s3754100 0.0 1014560
12:00+22ssw3545100 0.0 10131025
15:00+23ssw463894 0.0 10121220
18:00+20ese116064 0.0 101023
21:00+14ssw3260100 0.0 101126
9 may, sun
sun900:00+15sw4960100 0.0 1011440
03:00+13s3893100 0.5 1010378
06:00+10nw61297100 5.4 1013758
09:00+8nw61098100 14.9 1016821
12:00+9nw5890100 1.9 1019918
15:00+11nw7868100 2.1 10211513
18:00+11nw366986 0.1 10221068
21:00+6sw34815 0.1 102453
10 may, mon
mon1000:00+6sw357350 0.0 102483
03:00+5wsw34734 0.0 102461
06:00+6wsw357876 0.1 102499
09:00+12nw465752 0.3 10241417
12:00+13wnw565690 0.5 10221746
15:00+12nw6863100 1.4 10221538
18:00+9wnw3778100 0.8 1021315
21:00+7w3795100 2.0 1022403
11 may, tue
tue1100:00+6ssw41093100 0.5 1019538
03:00+7ssw61288100 0.8 10171078
06:00+8ssw51290100 1.3 10161200
09:00+8ssw91593100 5.6 10161177
12:00+9ssw91691100 1.9 10161367
15:00+8s81589100 3.1 10161298
18:00+8sse71492100 1.8 10161144
21:00+9sse51280100 2.1 1016857